Flag for Qatar Weather past 2 weeks in Al Khor, Qatar

Now
91 °F

Sunny.


Feels Like: 100 °F
Forecast: 84 / 104 °F
Wind: 9 mph from North

Location: Doha International Airport

Current Time: May 30, 2015 at 6:37:36 PM

Latest Report: May 30, 2015 at 6:00 PM


Visibility: 10 mi

Pressure: 29.68 "Hg

Humidity: 56%

Dew point: 73 °F

Location of Al KhorLocation

Historic Weather in Al Khor — Graph

°F

Al Khor temperature yesterday

Maximum temperature yesterday: 102 °F (at 9:00 AM)
Minimum temperature yesterday: 84 °F (at 8:00 PM)
Average temperature yesterday: 93 °F

Past Weeks' High & Low Weather Summary

 TemperatureHumidityPressure
High109 °F (May 16, 1:00 PM)94% (May 30, 1:00 AM)29.80 "Hg (May 30, 1:00 AM)
Low81 °F (May 30, 3:00 AM)7% (May 18, 12:30 PM)29.59 "Hg (May 29, 1:00 AM)
Average94 °F28%29.72 "Hg
* Reported May 15 5:00 PM — May 30 5:00 PM, Al Khor, Weather by CustomWeather, © 2015

Note: Actual official high and low records may vary slightly from our data, if they occured in-between our weather recording intervals... More about our weather records

Advertising

Al Khor weather history for previous 24 hours

 ConditionsComfort  
Time TempWeatherWind HumidityBarometerVisibility
5:00 PM
Sat, May 30
99 °FSunny.8 mph35%29.68 "Hg10 mi
4:00 PM99 °FSunny.8 mph35%29.68 "Hg10 mi
3:00 PM99 °FSunny.14 mph33%29.68 "Hg10 mi
2:00 PM99 °FSunny.14 mph29%29.71 "Hg10 mi
1:00 PM102 °FPassing clouds.12 mph17%29.71 "HgN/A
12:00 PM100 °FSunny.14 mph27%29.74 "Hg10 mi
11:00 AM99 °FSunny.12 mph31%29.74 "Hg10 mi
10:00 AM97 °FSunny.9 mph39%29.74 "Hg10 mi
9:00 AM97 °FSunny.10 mph32%29.74 "Hg10 mi
8:00 AM91 °FSunny.10 mph49%29.74 "Hg10 mi
7:00 AM86 °FClear.7 mph79%29.71 "Hg6 mi
6:00 AM82 °FPassing clouds.No wind94%29.71 "Hg4 mi
5:00 AM81 °FPassing clouds.2 mph94%29.68 "Hg4 mi
4:00 AM81 °FPassing clouds.3 mph94%29.68 "Hg5 mi
3:00 AM81 °FPassing clouds.3 mph94%29.65 "Hg5 mi
2:00 AM82 °FPassing clouds.5 mph89%29.65 "Hg5 mi
1:00 AM82 °FPassing clouds.8 mph94%29.65 "Hg5 mi
12:00 AM84 °FPassing clouds.8 mph89%29.65 "Hg4 mi
11:00 PM
Fri, May 29
84 °FPassing clouds.8 mph89%29.68 "Hg5 mi
10:00 PM84 °FClear.7 mph89%29.68 "Hg5 mi
9:00 PM84 °FClear.7 mph89%29.68 "Hg6 mi
8:00 PM84 °FClear.7 mph89%29.65 "Hg10 mi
7:00 PM86 °FClear.8 mph79%29.65 "Hg10 mi
6:00 PM88 °FSunny.10 mph75%29.62 "Hg10 mi
Weather by CustomWeather, © 2015

See weather overviewHow to use our weather pages